Hourly Data Report for October 31, 2016

All times are specified in Local Standard Time (LST). Add 1 hour to adjust for Daylight Saving Time where and when it is observed.

GJOA HAVEN A
NUNAVUT

68°38'08.000" N
95°51'01.000" W
46.90 m
2302337
71597
YHK

Download Data

Hourly Data (October 2016)
Hourly Data Report for October 31, 2016
Temp Definition
°C
Dew Point Temp Definition
°C
Rel Hum Definition
%
Wind Dir Definition
10's deg

Wind Spd Definition
km/h
Visibility Definition
km
Stn Press Definition
kPa
Hmdx Definition


Wind Chill Definition


Weather Definition


TIME
00:00 Legend Double Dagger -14.5 -15.8 90 35 32 2.0 100.68   -26 Snow
01:00 Legend Double Dagger -14.7 -16.0 90 35 37 1.6 100.67   -27 Snow
02:00 Legend Double Dagger -15.3 -16.7 89 34 34 1.6 100.67   -27 Snow
03:00 Legend Double Dagger -15.4 -16.8 89 34 37 0.8 100.63   -28 Moderate Snow
04:00 Legend Double Dagger -15.2 -16.6 89 34 35 1.2 100.62   -27 Snow
05:00 Legend Double Dagger -15.5 -16.9 89 34 35 1.2 100.60   -27 Snow
06:00 Legend Double Dagger -15.6 -17.0 89 34 41 0.8 100.60   -28 Moderate Snow,Blowing Snow
07:00 Legend Double Dagger -15.4 -16.8 89 34 41 0.8 100.56   -28 Moderate Snow,Blowing Snow
08:00 Legend Double Dagger -15.7 -17.1 89 34 37 0.2 100.51   -28 Heavy Snow
09:00 Legend Double Dagger -16.0 -17.6 88 33 41 0.6 100.50   -29 Blowing Snow
10:00 Legend Double Dagger -15.0 -16.6 88 33 37 2.4 100.49   -27 Fog
11:00 Legend Double Dagger -14.6 -16.2 88 33 37 4.0 100.45   -27 Fog
12:00 Legend Double Dagger -14.5 -16.2 87 33 32 16.1 100.42   -26 LegendNANA
13:00 Legend Double Dagger -13.8 -15.5 87 32 30 9.7 100.37   -24 Fog
14:00 Legend Double Dagger -14.4 -16.2 87 32 32 16.1 100.35   -26 LegendNANA
15:00 Legend Double Dagger -14.3 -16.2 86 31 26 16.1 100.33   -24 LegendNANA
16:00 Legend Double Dagger -14.4 -16.1 87 31 26 16.1 100.25   -25 LegendNANA
17:00 Legend Double Dagger -14.6 -16.2 88 31 26 3.6 100.20   -25 Snow
18:00 Legend Double Dagger -14.9 -16.6 87 30 24 14.5 100.17   -25 LegendNANA
19:00 Legend Double Dagger -14.9 -16.5 88 31 22 16.1 100.10   -24 LegendNANA
20:00 Legend Double Dagger -14.8 -16.5 87 31 18 16.1 100.04   -23 LegendNANA
21:00 Legend Double Dagger -15.2 -16.9 87 29 21 16.1 99.97   -25 LegendNANA
22:00 Legend Double Dagger -14.9 -16.6 87 31 18 16.1 99.91   -24 Snow
23:00 Legend Double Dagger -14.8 -16.4 88 28 18 4.0 99.86   -23 Snow

Notes on Data Quality.

Legend

  • E = Estimated
  • M = Missing
  • NA = Not Available
  • ‡ = Partner data that is not subject to review by the National Climate Archives
Date modified: